Palos Park, Illinois, United States (60464)
Lat: 41.67N, Lon: 87.83W
Wx Zone: ILZ014
Local Info
Past Weather Observations for Sunday, May 24, 2015

NOTE: This archive is for the closest National Weather Service station to Palos Park. Information may differ from the station used for current weather conditions.

Click here for Long-term Archive

Time Weather Temperature Dewpoint Humidity Pressure Winds Precip Visibility
23:53
Overcast
75°F / 24°C 63°F / 17°C 65% 29.92 in
(1013 mb)
S 16.1 mph
(S 26 kph)
- 10SM
22:53
Mostly Cloudy
75°F / 24°C 63°F / 17°C 65% 29.92 in
(1013 mb)
S 12.7 mph
(S 20 kph)
- 10SM
21:53
Partly Cloudy
75°F / 24°C 63°F / 17°C 65% 29.92 in
(1013 mb)
S 11.5 mph
(S 19 kph)
- 10SM
20:53
Mostly Cloudy
72°F / 22°C 64°F / 18°C 78% 29.95 in
(1014 mb)
SSE 6.9 mph
(SSE 11 kph)
- 10SM
19:53
Mostly Cloudy
66°F / 19°C 63°F / 17°C 88% 29.95 in
(1014 mb)
E 4.6 mph
(E 7 kph)
- 10SM
18:53
Mostly Cloudy
66°F / 19°C 63°F / 17°C 88% 29.95 in
(1014 mb)
E 5.8 mph
(E 9 kph)
0.01 in
(0.25 mm)
8SM
17:53
Mostly Cloudy
68°F / 20°C 64°F / 18°C 88% 29.95 in
(1014 mb)
E 5.8 mph
(E 9 kph)
0.05 in
(1.27 mm)
10SM
16:53
Mostly Cloudy
66°F / 19°C 64°F / 18°C 94% 29.95 in
(1014 mb)
NE 6.9 mph
(NE 11 kph)
0.12 in
(3.05 mm)
8SM
15:53
Overcast
Light Rain
64°F / 18°C 61°F / 16°C 88% 30.04 in
(1017 mb)
NNW 4.6 mph
(NNW 7 kph)
0.20 in
(5.08 mm)
5SM
14:53
Overcast
Light Rain
70°F / 21°C 57°F / 14°C 64% 30.01 in
(1016 mb)
E 10.4 mph
(E 17 kph)
0.02 in
(0.51 mm)
9SM
13:53
Overcast
73°F / 23°C 55°F / 13°C 53% 30.04 in
(1017 mb)
E 9.2 mph
(E 15 kph)
- 10SM
12:53
Overcast
73°F / 23°C 55°F / 13°C 53% 30.06 in
(1018 mb)
E 10.4 mph
(E 17 kph)
- 10SM
11:53
Overcast
73°F / 23°C 55°F / 13°C 53% 30.09 in
(1019 mb)
E 8.1 mph
(E 13 kph)
- 10SM
10:53
Overcast
73°F / 23°C 54°F / 12°C 50% 30.12 in
(1020 mb)
ESE 9.2 mph
(ESE 15 kph)
- 10SM
09:53
Overcast
72°F / 22°C 54°F / 12°C 53% 30.15 in
(1021 mb)
E 8.1 mph
(E 13 kph)
- 10SM
08:53
Overcast
66°F / 19°C 55°F / 13°C 68% 30.15 in
(1021 mb)
ESE 6.9 mph
(ESE 11 kph)
0.00 in
(0.00 mm)
10SM
07:53
Overcast
Light Rain
64°F / 18°C 55°F / 13°C 73% 30.18 in
(1022 mb)
SE 9.2 mph
(SE 15 kph)
0.00 in
(0.00 mm)
10SM
06:53
Overcast
Light Rain
63°F / 17°C 55°F / 13°C 77% 30.18 in
(1022 mb)
Calm 0.03 in
(0.76 mm)
10SM
05:53
Overcast
Light Rain
64°F / 18°C 52°F / 11°C 64% 30.18 in
(1022 mb)
SSE 8.1 mph
(SSE 13 kph)
0.01 in
(0.25 mm)
10SM
04:53
Overcast
66°F / 19°C 48°F / 9°C 52% 30.18 in
(1022 mb)
SE 3.5 mph
(SE 6 kph)
- 10SM
03:53
Mostly Cloudy
66°F / 19°C 48°F / 9°C 52% 30.21 in
(1023 mb)
Calm - 10SM
02:53
Mostly Cloudy
66°F / 19°C 46°F / 8°C 49% 30.18 in
(1022 mb)
S 3.5 mph
(S 6 kph)
- 10SM
01:53
Partly Cloudy
66°F / 19°C 46°F / 8°C 49% 30.18 in
(1022 mb)
S 5.8 mph
(S 9 kph)
- 10SM
00:53
Partly Cloudy
66°F / 19°C 46°F / 8°C 49% 30.18 in
(1022 mb)
S 3.5 mph
(S 6 kph)
- 10SM
Time Weather Temperature Dewpoint Humidity Pressure Winds Precip Visibility


Weather for websites

WeatherForYou.com, LLC is not responsible for any damages or problems caused by this service. Current weather conditions are obtained from the closest station including government and personal stations which may have varying degrees of accuracy. Weather forecasts are derived from the NOAA NDFD. Like all things, this site belongs to Jesus Christ... He just trusts us to maintain it. If you have any questions or comments email webmaster@weatherforyou.com

Copyright © 2015, WeatherForYou.com LLC. All rights reserved.